Home > Weather > Galveston > Past weeks

Flag for USA Past Weather in Galveston, Texas, USA — Yesterday and Last 2 Weeks

Now
88 °F

Scattered clouds.


Feels Like: 100 °F
Forecast: 83 / 89 °F
Wind: 9 mph from South

Location: Scholes Field

Current Time: Jul 28, 2016 at 5:32:11 PM

Latest Report: Jul 28, 2016 at 4:52 PM


Visibility: 10 mi

Pressure: 29.99 "Hg

Humidity: 70%

Dew Point: 77 °F

Location of GalvestonLocation

Past Weather in Galveston — Graph

°F

Galveston Temperature Yesterday

Maximum temperature yesterday: 90 °F (at 3:52 PM)
Minimum temperature yesterday: 77 °F (at 7:52 AM)
Average temperature yesterday: 84 °F

High & Low Weather Summary for the Past Weeks

 TemperatureHumidityPressure
High92 °F (Jul 14, 2:52 PM)100% (Jul 26, 3:52 AM)30.19 "Hg (Jul 26, 3:52 AM)
Low73 °F (Jul 26, 4:03 AM)61% (Jul 21, 12:52 PM)29.88 "Hg (Jul 26, 5:52 PM)
Average85 °F79%30.03 "Hg
* Reported Jul 13 3:52 PM — Jul 28 3:52 PM, Galveston, Weather by CustomWeather, © 2016

Note: Actual official high and low records may vary slightly from our data, if they occured in-between our weather recording intervals... More about our weather records

Advertising

Galveston Weather History for the Previous 24 Hours

Scroll right to see more
 ConditionsComfort  
Time TempWeatherWind HumidityBarometerVisibility
3:52 PM
Thu, Jul 28
89 °FScattered clouds.7 mph65%29.99 "Hg10 mi
2:52 PM87 °FScattered clouds.6 mph67%30.00 "Hg10 mi
1:52 PM87 °FPassing clouds.8 mph65%30.02 "Hg10 mi
12:52 PM87 °FScattered clouds.6 mph67%30.02 "Hg10 mi
11:52 AM84 °FScattered clouds.12 mph67%30.03 "Hg10 mi
10:52 AM88 °FScattered clouds.12 mph75%30.02 "Hg10 mi
9:52 AM88 °FSunny.13 mph75%30.02 "Hg10 mi
8:52 AM86 °FSunny.10 mph77%30.03 "Hg10 mi
7:52 AM85 °FSunny.9 mph80%30.00 "Hg10 mi
6:52 AM84 °FClear.7 mph83%30.00 "Hg10 mi
5:52 AM84 °FClear.10 mph80%29.98 "Hg10 mi
4:52 AM84 °FClear.12 mph80%29.98 "Hg10 mi
3:52 AM84 °FPassing clouds.15 mph85%29.97 "Hg10 mi
2:52 AM84 °FPassing clouds.15 mph88%29.96 "Hg10 mi
1:52 AM84 °FClear.16 mph88%29.96 "Hg10 mi
12:52 AM85 °FPassing clouds.18 mph86%29.98 "Hg10 mi
11:52 PM
Wed, Jul 27
84 °FPassing clouds.14 mph88%29.98 "Hg10 mi
10:52 PM84 °FPassing clouds.12 mph85%29.98 "Hg10 mi
9:52 PM84 °FPassing clouds.16 mph85%29.96 "Hg10 mi
8:52 PM84 °FSunny.9 mph85%29.96 "Hg10 mi
7:52 PM84 °FSunny.14 mph85%29.95 "Hg10 mi
6:52 PM86 °FSunny.15 mph83%29.93 "Hg10 mi
5:52 PM88 °FScattered clouds.16 mph78%29.95 "Hg10 mi
Weather by CustomWeather, © 2016

See weather overviewHow to use our weather pages